Dutzow, MO

10:37 AM CDT on August 28, 2016 (GMT -0500)
Washington

Weather History for KFYG - January, 2013

Change the Weather History Date:

Monday, January 28, 2013

  Actual Average (KSTL) Record (KSTL)
Temperature  
Mean Temperature 64 °F 32 °F  
Max Temperature 73 °F 41 °F 76 °F (1970)
Min Temperature 55 °F 24 °F -11 °F (1936)
Degree Days  
Heating Degree Days 1 33  
Month to date heating degree days 932  
Since 1 July heating degree days 2697  
Cooling Degree Days 0 0  
Month to date cooling degree days 0  
Year to date cooling degree days 0  
Growing Degree Days 14 (Base 50)    
Moisture  
Dew Point 58 °F    
Average Humidity 82    
Maximum Humidity 100    
Minimum Humidity 61    
Precipitation  
Precipitation 0.00 in 0.07 in 1.54 in (1876)
Month to date precipitation 2.18  
Year to date precipitation 2.18  
Snow  
Snow 0.00 in 0.20 in 2.10 in (1895)
Month to date snowfall 5.1  
Since 1 July snowfall 10.2  
Snow Depth -    
Sea Level Pressure  
Sea Level Pressure 29.89 in    
Wind  
Wind Speed 8 mph (SSE)    
Max Wind Speed 17 mph    
Max Gust Speed 24 mph    
Visibility 10 miles    
Events      
T = Trace of Precipitation, MM = Missing Value Source: NWS Daily Summary

Daily Weather History Graph

Daily Weather History Graph

Search for Another Location

Airport or City:

Trip Planner

Search our weather history database for the weather conditions in past years. The results will help you decide how hot, cold, wet, or windy it might be!

Date:

Astronomy

Jan. 28, 2013 Rise Set
Actual Time 7:12 AM CST 5:21 PM CST
Civil Twilight 6:44 AM CST 5:49 PM CST
Nautical Twilight 6:12 AM CST 6:21 PM CST
Astronomical Twilight 5:41 AM CST 6:53 PM CST
Moon 7:14 PM CST 7:40 AM CST
Length of Visible Light 11h 05m
Length of Day
10h 09m
Full, 98% of the Moon is Illuminated
Jan 28
Full
Feb 3
Last Quarter
Feb 10
New
Feb 17
First Quarter
Feb 25
Full

Hourly Weather History & Observations

Time (CST) Temp. Dew Point Humidity Pressure Visibility Wind Dir Wind Speed Gust Speed Precip Events Conditions
12:15 AM 57.2 °F 53.6 °F 88% 29.93 in 10.0 mi South 9.2 mph - N/A   Overcast
12:35 AM 57.2 °F 53.6 °F 88% 29.94 in 10.0 mi South 9.2 mph - N/A   Overcast
12:55 AM 59.0 °F 55.4 °F 88% 29.93 in 10.0 mi South 8.1 mph 18.4 mph N/A   Overcast
1:15 AM 59.0 °F 55.4 °F 88% 29.93 in 10.0 mi South 10.4 mph - N/A   Overcast
1:35 AM 59.0 °F 55.4 °F 88% 29.93 in 10.0 mi SSW 12.7 mph - N/A   Overcast
1:55 AM 59.0 °F 55.4 °F 88% 29.93 in 10.0 mi South 11.5 mph - N/A   Overcast
2:15 AM 59.0 °F 55.4 °F 88% 29.92 in 10.0 mi SSW 15.0 mph - N/A   Overcast
2:35 AM 59.0 °F 55.4 °F 88% 29.93 in 10.0 mi SSW 9.2 mph 17.3 mph N/A   Overcast
2:55 AM 59.0 °F 55.4 °F 88% 29.92 in 10.0 mi South 11.5 mph 17.3 mph N/A   Overcast
3:15 AM 59.0 °F 55.4 °F 88% 29.92 in 10.0 mi South 9.2 mph - N/A   Overcast
3:35 AM 59.0 °F 55.4 °F 88% 29.92 in 10.0 mi South 8.1 mph - N/A   Overcast
3:55 AM 59.0 °F 55.4 °F 88% 29.92 in 10.0 mi South 6.9 mph - N/A   Overcast
4:15 AM 59.0 °F 55.4 °F 88% 29.92 in 10.0 mi SSE 4.6 mph - N/A   Overcast
4:35 AM 59.0 °F 55.4 °F 88% 29.91 in 10.0 mi SSE 8.1 mph - N/A   Overcast
4:55 AM 59.0 °F 55.4 °F 88% 29.91 in 10.0 mi Calm Calm - N/A   Overcast
5:15 AM 59.0 °F 57.2 °F 94% 29.91 in 10.0 mi SE 6.9 mph - N/A   Overcast
5:35 AM 59.0 °F 57.2 °F 94% 29.91 in 10.0 mi SE 6.9 mph - N/A   Overcast
5:55 AM 59.0 °F 57.2 °F 94% 29.91 in 10.0 mi SE 5.8 mph - N/A   Overcast
6:15 AM 59.0 °F 57.2 °F 94% 29.91 in 10.0 mi SE 8.1 mph - N/A   Overcast
6:35 AM 59.0 °F 57.2 °F 94% 29.92 in 10.0 mi SE 6.9 mph - N/A   Mostly Cloudy
6:55 AM 59.0 °F 57.2 °F 94% 29.93 in 10.0 mi Calm Calm - N/A   Overcast
7:15 AM 59.0 °F 57.2 °F 94% 29.93 in 10.0 mi Calm Calm - N/A   Overcast
7:35 AM 59.0 °F 57.2 °F 94% 29.94 in 10.0 mi Calm Calm - N/A   Overcast
7:55 AM 59.0 °F 57.2 °F 94% 29.94 in 10.0 mi Calm Calm - N/A   Overcast
8:15 AM 59.0 °F 57.2 °F 94% 29.95 in 10.0 mi Calm Calm - N/A   Overcast
8:35 AM 59.0 °F 57.2 °F 94% 29.95 in 10.0 mi Calm Calm - N/A   Overcast
8:55 AM 59.0 °F 57.2 °F 94% 29.95 in 10.0 mi Calm Calm - N/A   Overcast
9:15 AM 55.4 °F 55.4 °F 100% 29.95 in 8.0 mi Calm Calm - N/A   Overcast
9:35 AM 59.0 °F 57.2 °F 94% 29.95 in 10.0 mi SE 4.6 mph - N/A   Overcast
9:55 AM 60.8 °F 59.0 °F 94% 29.95 in 10.0 mi Calm Calm - N/A   Overcast
10:15 AM 62.6 °F 59.0 °F 88% 29.95 in 10.0 mi SE 6.9 mph - N/A   Overcast
10:35 AM 62.6 °F 59.0 °F 88% 29.95 in 10.0 mi SE 6.9 mph - N/A   Overcast
10:55 AM 62.6 °F 59.0 °F 88% 29.94 in 10.0 mi SE 6.9 mph - N/A   Overcast
11:15 AM 64.4 °F 59.0 °F 83% 29.94 in 10.0 mi ESE 8.1 mph - N/A   Overcast
11:35 AM 62.6 °F 59.0 °F 88% 29.93 in 10.0 mi East 5.8 mph - N/A   Overcast
11:55 AM 64.4 °F 59.0 °F 83% 29.92 in 10.0 mi ESE 3.5 mph - N/A   Overcast
12:15 PM 66.2 °F 59.0 °F 78% 29.91 in 10.0 mi ESE 5.8 mph - N/A   Overcast
12:35 PM 66.2 °F 60.8 °F 83% 29.90 in 10.0 mi SSE 4.6 mph - N/A   Overcast
12:55 PM 68.0 °F 60.8 °F 78% 29.89 in 10.0 mi SSW 15.0 mph - N/A   Overcast
1:15 PM 71.6 °F 60.8 °F 69% 29.88 in 10.0 mi SSW 10.4 mph - N/A   Overcast
1:35 PM 71.6 °F 60.8 °F 69% 29.87 in 10.0 mi SSW 12.7 mph 16.1 mph N/A   Overcast
1:55 PM 71.6 °F 60.8 °F 69% 29.86 in 10.0 mi SSW 11.5 mph - N/A   Mostly Cloudy
2:15 PM 71.6 °F 60.8 °F 69% 29.86 in 10.0 mi South 11.5 mph - N/A   Overcast
2:35 PM 73.4 °F 59.0 °F 61% 29.85 in 10.0 mi SW 16.1 mph - N/A   Mostly Cloudy
2:55 PM 73.4 °F 59.0 °F 61% 29.85 in 10.0 mi SSW 17.3 mph 21.9 mph N/A   Mostly Cloudy
3:15 PM 73.4 °F 59.0 °F 61% 29.85 in 10.0 mi SSW 17.3 mph 24.2 mph N/A   Mostly Cloudy
3:35 PM 73.4 °F 59.0 °F 61% 29.85 in 10.0 mi South 12.7 mph 18.4 mph N/A   Scattered Clouds
3:55 PM 71.6 °F 60.8 °F 69% 29.85 in 10.0 mi SSE 9.2 mph - N/A   Mostly Cloudy
4:15 PM 69.8 °F 60.8 °F 73% 29.85 in 10.0 mi SSE 8.1 mph - N/A   Mostly Cloudy
4:35 PM 69.8 °F 60.8 °F 73% 29.85 in 10.0 mi SE 6.9 mph - N/A   Scattered Clouds
4:55 PM 68.0 °F 59.0 °F 73% 29.85 in 10.0 mi SSE 6.9 mph - N/A   Clear
5:15 PM 69.8 °F 59.0 °F 68% 29.85 in 10.0 mi SE 6.9 mph - N/A   Mostly Cloudy
5:35 PM 69.8 °F 59.0 °F 68% 29.85 in 10.0 mi SE 8.1 mph - N/A   Scattered Clouds
5:55 PM 66.2 °F 57.2 °F 73% 29.85 in 10.0 mi SE 6.9 mph - N/A   Clear
6:15 PM 68.0 °F 57.2 °F 68% 29.86 in 10.0 mi SE 8.1 mph - N/A   Partly Cloudy
6:35 PM 68.0 °F 57.2 °F 68% 29.86 in 10.0 mi SE 8.1 mph - N/A   Clear
6:55 PM 66.2 °F 57.2 °F 73% 29.86 in 10.0 mi SE 9.2 mph - N/A   Partly Cloudy
7:15 PM 66.2 °F 57.2 °F 73% 29.86 in 10.0 mi SE 9.2 mph - N/A   Clear
7:35 PM 66.2 °F 57.2 °F 73% 29.86 in 10.0 mi SE 8.1 mph - N/A   Clear
7:55 PM 64.4 °F 57.2 °F 77% 29.86 in 10.0 mi SE 9.2 mph - N/A   Clear
8:15 PM 64.4 °F 57.2 °F 77% 29.86 in 10.0 mi SE 9.2 mph - N/A   Clear
8:35 PM 64.4 °F 57.2 °F 77% 29.86 in 10.0 mi SE 10.4 mph - N/A   Clear
8:55 PM 64.4 °F 57.2 °F 77% 29.86 in 10.0 mi SE 10.4 mph - N/A   Clear
9:15 PM 64.4 °F 57.2 °F 77% 29.86 in 10.0 mi SE 9.2 mph - N/A   Partly Cloudy
9:35 PM 62.6 °F 57.2 °F 82% 29.86 in 10.0 mi SSE 12.7 mph - N/A   Mostly Cloudy
9:55 PM 64.4 °F 59.0 °F 83% 29.85 in 10.0 mi SSE 11.5 mph - N/A   Overcast
10:15 PM 64.4 °F 59.0 °F 83% 29.85 in 10.0 mi SSE 9.2 mph - N/A   Mostly Cloudy
10:35 PM 62.6 °F 59.0 °F 88% 29.84 in 10.0 mi SSE 9.2 mph - N/A   Clear
10:55 PM 62.6 °F 59.0 °F 88% 29.84 in 10.0 mi SSE 11.5 mph - N/A   Scattered Clouds
11:15 PM 62.6 °F 59.0 °F 88% 29.84 in 10.0 mi SSE 9.2 mph - N/A   Scattered Clouds
11:35 PM 62.6 °F 59.0 °F 88% 29.83 in 10.0 mi SSE 11.5 mph - N/A   Scattered Clouds
11:55 PM 62.6 °F 59.0 °F 88% 29.82 in 10.0 mi SSE 17.3 mph - N/A   Mostly Cloudy